Location: Unnamed
(47.6264°N, 122.3366°W)
Time: 07:53:43
(UTC-08:00)

DIWATA 2B (PO-101) - Pass Details

Date: 11 December 2023
Orbit: 576 x 590 km, 98.1° (Epoch: 24 February)

Event Time Altitude Azimuth Distance (km) Brightness Sun altitude
Rises 17:18:41 0° 1° (N) 2,843 ? -9.8°
Reaches altitude 10° 17:21:16 10° 345° (NNW) 1,936 ? -10.2°
Maximum altitude 17:24:24 21° 297° (WNW) 1,362 ? -10.7°
Drops below altitude 10° 17:27:31 10° 249° (WSW) 1,924 ? -11.2°
Sets 17:30:05 0° 233° (SW) 2,819 ? -11.6°
